Regional Weather Roundup
Issued by NWS Kansas City/Pleasant Hill, MO

Home | Current Version | Previous Version | Graphics & Text | Print | Product List | Glossary Off
Versions: 1 2 3 4 5 6 7 8 9 10 11 12 13 14 15 16 17 18 19 20 21 22 23 24 25 26 27 28 29 30 31 32 33 34 35 36 37 38 39 40 41 42 43 44 45 46 47 48 49 50

957
ASUS43 KEAX 200010
RWREAX

WEATHER ROUNDUP FOR EASTERN KANSAS AND NORTHWEST MISSOURI
NATIONAL WEATHER SERVICE KANSAS CITY/PLEASANT HILL MO
700 PM CDT TUE SEP 19 2017

KSZ040-057-103>105-MOZ028-029-037-043-200100-
...KANSAS CITY METROPOLITAN AREA...

CITY           SKY/WX    TMP DP  RH WIND       PRES   REMARKS
K.C. INTL      CLEAR     83  70  64 S20G28    29.70F
6HR MIN TEMP:  83; 6HR MAX TEMP:  86;

K.C. DOWNTOWN  CLEAR     86  70  58 SE17      29.70S HX  90
6HR MIN TEMP:  86; 6HR MAX TEMP:  89;

LEES SUMMIT    CLEAR     83  70  64 SE14G22   29.73F
6HR MIN TEMP:  83; 6HR MAX TEMP:  88;

OLATHE - IXD   CLEAR     82  67  60 SE18G29   29.72S
6HR MIN TEMP:  82; 6HR MAX TEMP:  88;

OLATHE - OJC   CLEAR     81  69  67 S16       29.72S
6HR MIN TEMP:  81; 6HR MAX TEMP:  86;

LAWRENCE       CLEAR     83  69  62 SE14      29.69R

$$

MOZ001>008-011>017-020>025-030>033-038>040-044>046-053-054-200100-
...NORTHERN AND CENTRAL MISSOURI...

CITY           SKY/WX    TMP DP  RH WIND       PRES   REMARKS
ST. JOSEPH     CLEAR     84  71  65 S15       29.68S
6HR MIN TEMP:  84; 6HR MAX TEMP:  89;

MOSBY          CLEAR     82  68  61 SE8       29.72S
WARRENSBURG    CLEAR     79  68  69 SE8       29.76S
WHITEMAN AFB   PTCLDY    82  72  71 S9        29.76F
6HR MIN TEMP:  82; 6HR MAX TEMP:  86;

CLINTON        CLEAR     82  70  65 SE6       29.78S
SEDALIA        PTCLDY    83  71  67 SE8       29.80F
6HR MIN TEMP:  83; 6HR MAX TEMP:  88;

WARSAW         NOT AVBL
CHILLICOTHE      N/A     83  69  62 SE8       29.76S
6HR MIN TEMP:  81; 6HR MAX TEMP:  86;

KIRKSVILLE     CLEAR     80  66  62 SE9       29.80S
6HR MIN TEMP:  77; 6HR MAX TEMP:  85;


$$

MOZ041-047>049-056>058-063>065-088>090-097-200100-
...EASTERN AND SOUTHERN MISSOURI...

CITY           SKY/WX    TMP DP  RH WIND       PRES   REMARKS
ST. LOUIS INTL CLEAR     84  66  54 E8        29.84F
6HR MIN TEMP:  84; 6HR MAX TEMP:  89;

SPIRIT OF STL  PTCLDY    80  73  79 CALM      29.82F
COLUMBIA       CLEAR     82  70  66 SE5       29.82S
JEFFERSON CITY CLEAR     83  68  60 E5        29.80S
ROLLA          CLEAR     81  66  60 SE8       29.85S
OSAGE BEACH    CLEAR     83  68  60 S3        29.83
SPRINGFIELD    CLEAR     82  66  58 S6        29.82S
BRANSON        MOCLDY    82  64  54 SE6       29.86S
JOPLIN         CLEAR     83  69  62 S15       29.79S
WEST PLAINS    CLEAR     84  65  52 S7        29.89R

$$

IAZ060-094-KSZ022-034>040-054-083-096-NEZ052-066-093-200100-
...KANSAS...SOUTHEAST NEBRASKA AND IOWA...

CITY           SKY/WX    TMP DP  RH WIND       PRES   REMARKS
TOPEKA         CLEAR     85  72  65 SE18G25   29.65F HX  91
6HR MIN TEMP:  85; 6HR MAX TEMP:  91;

MANHATTAN      CLEAR     89  72  56 S15G26    29.59S HX  96
EMPORIA        CLEAR     84  72  67 SE18G32   29.66F
CHANUTE        CLEAR     84  71  65 S16       29.73S
WICHITA        PTCLDY    92  66  42 S29G37    29.62S HX  94
OMAHA          CLOUDY    85  67  54 SE28G35   29.57F
LINCOLN        CLOUDY    87  68  52 SE22G30   29.54F HX  90
FALLS CITY     CLEAR     84  68  58 SE18G32   29.63S
LAMONI         CLEAR     81  66  60 SE13      29.73S
DES MOINES     PTCLDY    81  68  64 SE21      29.71F

$$





USA.gov is the U.S. government's official web portal to all federal, state and local government web resources and services.